Select another period ( hide this area )

Units Period Custom range Directly to
Metric English Both
Daily Weekly Monthly Yearly
use both date-selectors for a custom range
previous Day
With this date

WeatherUnderground graphs for this period ( click here ) Loading the graph can take up to a minute!


Daily Summary for Wednesday 21 August 2019
Time Temp. ( °C ) Dew pt. ( °C ) Wind ( km/h ) From Gust ( km/h ) Pressure ( hPa ) Humid.( % ) Rainrate ( cm )
High27,5 14,2 8,8 NE ( 395/954 ) 15,8 1027,0 94 -
Average16,9 11,8 4,9 NE #65/193 9,4 1026,2 75 -
Low11,4 10,2 -   2,1 1024,0 39 -
Daily Tabular details for Wednesday 21 August 2019
Time Temp. ( °C ) Dew pt. ( °C ) Wind ( km/h ) From Gust ( km/h ) Pressure ( hPa ) Humid.( % ) Rainrate ( cm )
00:00 15,2 11,6 5,3 North 9,7 1027,0 79 -
00:05 15,1 11,5 5,0 North 7,2 1027,0 79 -
00:10 15,1 11,7 5,0 North 7,9 1027,0 80 -
00:15 15,0 11,4 5,0 North 9,3 1027,0 79 -
00:20 14,9 11,5 4,8 North 9,3 1027,0 80 -
00:25 14,8 11,4 4,7 North 9,0 1027,0 80 -
00:30 14,8 11,6 4,7 North 7,9 1027,0 81 -
00:35 14,8 11,6 5,3 North 8,7 1027,0 81 -
00:40 14,7 11,4 5,3 North 9,7 1027,0 81 -
00:45 14,7 11,4 5,1 North 9,7 1027,0 81 -
00:50 14,6 11,4 5,0 North 8,7 1027,0 81 -
00:55 14,5 11,4 5,3 North 9,0 1027,0 82 -
01:00 14,5 11,3 5,5 NNE 9,3 1027,0 81 -
01:05 14,4 11,2 5,1 North 9,7 1027,0 81 -
01:10 14,4 11,4 5,6 North 9,7 1027,0 82 -
01:15 14,4 11,4 5,8 North 9,7 1027,0 82 -
01:20 14,3 11,3 5,1 North 8,2 1027,0 82 -
01:25 14,2 11,2 5,0 North 9,0 1027,0 82 -
01:30 14,1 11,3 5,0 North 9,0 1027,0 83 -
01:35 14,0 11,0 4,5 NNE 8,2 1027,0 82 -
01:40 13,9 11,1 4,2 NNE 8,2 1027,0 83 -
01:45 13,8 10,9 4,7 North 10,1 1027,0 83 -
01:50 13,7 11,1 5,1 North 10,1 1027,0 84 -
01:55 13,7 11,1 5,5 North 10,5 1027,0 84 -
02:00 13,6 10,9 5,5 North 10,5 1027,0 84 -
02:05 13,6 11,1 4,7 North 8,7 1027,0 85 -
02:10 13,5 11,0 4,3 North 7,2 1027,0 85 -
02:15 13,5 11,0 4,7 North 7,2 1027,0 85 -
02:20 13,4 10,9 4,3 North 7,9 1027,0 85 -
02:25 13,4 11,1 4,2 North 7,9 1027,0 86 -
02:30 13,3 11,0 4,5 North 7,9 1027,0 86 -
02:35 13,3 11,0 4,5 NNE 7,9 1027,0 86 -
02:40 13,2 11,1 4,5 NNE 9,3 1027,0 87 -
02:45 13,1 11,0 4,5 North 9,3 1027,0 87 -
02:50 13,1 10,8 4,2 North 8,7 1027,0 86 -
02:55 13,0 10,9 4,2 North 8,7 1027,0 87 -
03:00 13,0 10,9 4,3 NNE 7,9 1027,0 87 -
03:05 12,9 10,9 4,5 NNE 8,2 1027,0 88 -
03:10 12,9 10,9 4,5 NNE 9,3 1027,0 88 -
03:15 12,9 11,1 4,8 North 9,3 1027,0 89 -
03:20 12,9 11,1 4,8 North 8,2 1027,0 89 -
03:25 12,9 11,1 4,8 North 9,0 1027,0 89 -
03:30 12,9 11,1 4,5 NNE 9,0 1027,0 89 -
03:35 12,8 11,1 4,3 NNE 8,2 1026,0 89 -
03:40 12,8 11,2 4,5 NNE 8,2 1026,0 90 -
03:45 12,8 11,1 4,3 NNE 9,0 1026,0 89 -
03:50 12,7 10,9 4,2 NNE 9,0 1026,0 89 -
03:55 12,6 10,8 4,7 NNE 7,2 1026,0 89 -
04:00 12,6 10,8 4,3 NNE 7,2 1026,0 89 -
04:05 12,5 10,7 4,2 North 8,7 1026,0 89 -
04:10 12,5 10,9 4,3 NNE 8,7 1026,0 90 -
04:15 12,5 10,9 4,7 NNE 8,7 1026,0 90 -
04:20 12,5 11,1 5,0 NNE 8,7 1026,0 91 -
04:25 12,5 11,1 5,0 NE 9,0 1026,0 91 -
04:30 12,7 11,4 5,6 NE 10,8 1026,0 92 -
04:35 12,7 11,4 6,0 NE 10,8 1027,0 92 -
04:40 12,7 11,3 6,0 NE 10,5 1027,0 91 -
04:45 12,9 11,6 6,8 NE 12,2 1027,0 92 -
04:50 12,8 11,6 6,9 NE 12,2 1026,0 92 -
04:55 12,9 11,6 6,8 NE 15,8 1026,0 92 -
05:00 13,0 11,7 6,8 NE 15,8 1026,0 92 -
05:05 13,0 11,7 7,2 NE 13,4 1026,0 92 -
05:10 13,0 11,6 7,1 NE 13,4 1026,0 91 -
05:15 13,0 11,4 5,6 NNE 10,8 1026,0 90 -
05:20 12,9 11,4 5,3 NNE 10,8 1026,0 91 -
05:25 12,8 11,2 5,1 NNE 10,5 1026,0 90 -
05:30 12,7 11,1 4,8 NNE 8,2 1026,0 90 -
05:35 12,6 11,0 4,5 NNE 8,2 1026,0 90 -
05:40 12,5 10,9 4,3 North 8,7 1026,0 90 -
05:45 12,5 11,1 4,3 North 8,7 1026,0 91 -
05:50 12,4 10,9 4,2 NNE 7,9 1026,0 91 -
05:55 12,4 10,9 4,7 NNE 8,2 1026,0 91 -
06:00 12,3 10,9 4,7 NNE 8,2 1026,0 91 -
06:05 12,2 10,8 4,2 NNE 7,2 1026,0 91 -
06:10 12,2 10,8 4,2 NNE 6,4 1026,0 91 -
06:15 12,2 10,8 4,3 NNE 8,7 1026,0 91 -
06:20 12,2 10,8 4,5 NNE 9,3 1026,0 91 -
06:25 12,1 10,7 3,9 NNE 9,3 1026,0 91 -
06:30 12,1 10,7 3,1 NE 7,9 1026,0 91 -
06:35 12,1 10,8 3,1 NNE 7,9 1026,0 92 -
06:40 12,0 10,6 2,9 NNE 7,9 1026,0 91 -
06:45 11,9 10,7 2,9 North 4,7 1026,0 92 -
06:50 11,9 10,7 2,7 North 4,7 1026,0 92 -
06:55 11,8 10,6 2,6 North 4,7 1026,0 92 -
07:00 11,7 10,4 2,9 North 5,0 1026,0 92 -
07:05 11,7 10,4 3,1 North 5,5 1026,0 92 -
07:10 11,7 10,4 2,9 NNE 5,5 1026,0 92 -
07:15 11,7 10,4 2,6 NNE 5,5 1026,0 92 -
07:20 11,6 10,3 2,7 NNE 5,5 1026,0 92 -
07:25 11,6 10,5 1,8 NNE 4,0 1026,0 93 -
07:30 11,5 10,2 1,4 NNE 4,0 1026,0 92 -
07:35 11,5 10,4 2,3 NE 5,0 1026,0 93 -
07:40 11,5 10,4 1,6 NE 5,0 1026,0 93 -
07:45 11,4 10,3 0,2 ENE 2,1 1026,0 93 -
07:50 11,4 10,3   Kalm 4,0 1027,0 93 -
07:55 11,4 10,3 1,3 NE 6,1 1027,0 93 -
08:00 11,5 10,4 2,3 NNE 6,1 1027,0 93 -
08:05 11,7 10,6 2,1 NNE 5,5 1027,0 93 -
08:10 11,8 10,9 1,8 NNE 5,5 1027,0 94 -
08:15 11,9 10,9 2,1 NNE 5,8 1027,0 94 -
08:20 12,1 11,0 2,6 NNE 5,8 1027,0 93 -
08:25 12,3 11,4 2,4 North 5,5 1027,0 94 -
08:30 12,4 11,4 2,4 North 5,5 1027,0 94 -
08:35 12,6 11,7 3,1 North 5,8 1027,0 94 -
08:40 12,8 11,8 3,5 NNE 6,1 1027,0 94 -
08:45 12,9 11,9 3,4 NNE 6,1 1027,0 94 -
08:50 13,1 12,0 2,9 NNE 6,1 1027,0 93 -
08:55 13,2 12,1 3,5 NNE 6,9 1027,0 93 -
09:00 13,4 12,3 4,0 NNE 7,9 1027,0 93 -
09:05 13,7 12,6 4,0 NNE 7,9 1027,0 93 -
09:10 13,9 12,6 4,0 NE 7,2 1027,0 92 -
09:15 14,4 12,9 4,7 NE 10,5 1027,0 91 -
09:20 15,0 13,6 5,8 NE 10,5 1027,0 91 -
09:25 15,4 13,6 6,3 NE 11,9 1027,0 89 -
09:30 15,6 13,3 6,8 NE 11,9 1027,0 86 -
09:35 15,7 13,2 6,8 NE 11,9 1027,0 85 -
09:40 15,7 13,2 6,3 NE 11,1 1027,0 85 -
09:45 15,8 12,9 6,6 NNE 11,1 1027,0 83 -
09:50 16,0 12,9 6,8 NNE 10,8 1027,0 82 -
09:55 16,2 12,9 6,0 NE 10,5 1027,0 81 -
10:00 16,6 13,5 5,6 NE 10,5 1027,0 82 -
10:05 16,8 13,1 6,4 NNE 11,1 1027,0 79 -
10:10 17,0 13,3 6,8 NE 11,1 1027,0 79 -
10:15 17,1 13,1 6,8 NE 11,1 1027,0 77 -
10:20 17,1 12,8 6,6 NE 11,1 1026,0 76 -
10:25 17,1 12,6 7,2 NNE 14,0 1026,0 75 -
10:30 17,2 12,5 7,9 NE 14,0 1026,0 74 -
10:35 17,4 13,1 7,2 NE 12,2 1027,0 76 -
10:40 17,8 13,3 7,4 NE 13,0 1027,0 75 -
10:45 18,2 12,8 8,2 NE 13,0 1027,0 71 -
10:50 18,6 13,0 8,7 NE 12,6 1026,0 70 -
10:55 18,8 13,2 8,8 NE 14,0 1026,0 70 -
11:00 19,1 12,6 8,2 NE 14,0 1026,0 66 -
11:05 19,6 13,3 8,2 NE 13,4 1026,0 67 -
11:10 20,0 13,7 8,0 NE 13,4 1026,0 67 -
11:15 20,1 12,6 7,2 NE 11,1 1026,0 62 -
11:20 20,5 12,9 7,6 NE 11,1 1026,0 62 -
11:25 20,6 13,3 7,6 NE 11,1 1026,0 63 -
11:30 20,9 12,8 6,6 NE 10,8 1026,0 60 -
11:35 21,1 14,0 6,3 NE 10,5 1026,0 64 -
11:40 21,4 13,8 6,4 NE 11,9 1026,0 62 -
11:45 21,8 14,2 6,1 NE 11,9 1026,0 62 -
11:50 21,8 13,9 6,0 NE 9,7 1026,0 61 -
11:55 22,0 13,3 6,6 NE 12,2 1026,0 58 -
12:00 22,2 13,6 6,9 NE 12,2 1026,0 58 -
12:05 22,1 12,9 6,8 NE 12,2 1026,0 56 -
12:10 22,1 12,6 6,8 NE 12,2 1026,0 55 -
12:15 22,5 14,1 6,1 NE 14,0 1026,0 59 -
12:20 22,7 14,0 5,8 NNE 14,0 1026,0 58 -
12:25 22,9 13,7 5,8 NE 12,2 1026,0 56 -
12:30 23,0 13,7 5,1 NE 8,7 1026,0 56 -
12:35 23,1 13,6 5,6 NE 10,5 1026,0 55 -
12:40 23,2 13,4 5,8 NE 10,8 1026,0 54 -
12:45 23,2 12,5 5,0 NE 10,8 1026,0 51 -
12:50 23,4 13,6 5,1 NNE 10,1 1026,0 54 -
12:55 23,4 12,7 5,5 NE 9,3 1026,0 51 -
13:00 23,7 12,9 5,1 NE 9,7 1026,0 51 -
13:05 23,8 12,4 5,1 ENE 9,7 1025,0 49 -
13:10 23,8 12,7 5,5 ENE 9,7 1025,0 50 -
13:15 24,1 12,4 4,5 NNE 9,0 1025,0 48 -
13:20 24,2 12,2 4,8 NE 11,9 1026,0 47 -
13:25 24,2 11,5 5,1 NE 11,9 1026,0 45 -
13:30 24,4 11,7 4,8 NE 8,7 1026,0 45 -
13:35 24,4 11,7 6,0 NE 9,3 1026,0 45 -
13:40 24,5 11,4 6,1 NE 10,5 1026,0 44 -
13:45 24,7 11,9 4,3 NE 10,5 1026,0 45 -
13:50 24,9 12,2 4,5 NE 10,8 1025,0 45 -
13:55 25,1 12,0 5,5 ENE 10,8 1025,0 44 -
14:00 25,1 11,6 5,8 NE 12,2 1025,0 43 -
14:05 25,3 11,8 6,6 NNE 12,2 1025,0 43 -
14:10 25,4 11,6 5,8 NNE 12,2 1025,0 42 -
14:15 25,4 11,2 5,1 NNW 12,2 1025,0 41 -
14:20 25,4 11,6 4,7 NNW 9,7 1025,0 42 -
14:25 25,5 11,3 5,8 NNE 12,6 1025,0 41 -
14:30 25,8 11,6 6,6 NNE 12,6 1025,0 41 -
14:35 25,7 11,1 6,1 NE 9,7 1024,0 40 -
14:40 25,8 11,9 5,0 NE 9,7 1024,0 42 -
14:45 26,0 11,7 3,9 NNE 9,3 1024,0 41 -
14:50 26,1 11,8 5,5 NNE 11,1 1025,0 41 -
14:55 26,1 11,4 5,0 North 11,1 1025,0 40 -
15:00 26,1 11,8 3,4 NNW 6,4 1025,0 41 -
15:05 26,2 11,9 4,3 North 9,7 1025,0 41 -
15:10 26,1 11,4 5,8 North 12,2 1025,0 40 -
15:15 26,4 11,3 4,8 NNE 12,2 1025,0 39 -
15:20 26,4 11,7 3,9 North 7,2 1025,0 40 -
15:25 26,7 12,0 3,9 NW 7,2 1025,0 40 -
15:30 26,8 12,1 3,7 WNW 7,9 1025,0 40 -
15:35 26,7 11,6 3,5 West 7,9 1025,0 39 -
15:40 26,7 12,0 4,3 WSW 8,7 1025,0 40 -
15:45 27,1 12,7 5,0 WSW 11,1 1025,0 41 -
15:50 27,4 12,6 4,8 WSW 11,1 1025,0 40 -
15:55 27,5 12,7 5,3 SW 10,8 1025,0 40 -
16:00 27,4 12,6 6,1 WSW 10,8 1025,0 40 -
Daily Summary for Wednesday 21 August 2019
Time Temp. ( °C ) Dew pt. ( °C ) Wind ( km/h ) From Gust ( km/h ) Pressure ( hPa ) Humid.( % ) Rainrate ( cm )
High27,5 14,2 8,8 NE ( 395/954 ) 15,8 1027,0 94 -
Average16,9 11,8 4,9 NE #65/193 9,4 1026,2 75 -
Low11,4 10,2 -   2,1 1024,0 39 -
Daily Tabular details for Wednesday 21 August 2019
Time Temp. ( °C ) Dew pt. ( °C ) Wind ( km/h ) From Gust ( km/h ) Pressure ( hPa ) Humid.( % ) Rainrate ( cm )
00:00 15,2 11,6 5,3 North 9,7 1027,0 79 -
00:05 15,1 11,5 5,0 North 7,2 1027,0 79 -
00:10 15,1 11,7 5,0 North 7,9 1027,0 80 -
00:15 15,0 11,4 5,0 North 9,3 1027,0 79 -
00:20 14,9 11,5 4,8 North 9,3 1027,0 80 -
00:25 14,8 11,4 4,7 North 9,0 1027,0 80 -
00:30 14,8 11,6 4,7 North 7,9 1027,0 81 -
00:35 14,8 11,6 5,3 North 8,7 1027,0 81 -
00:40 14,7 11,4 5,3 North 9,7 1027,0 81 -
00:45 14,7 11,4 5,1 North 9,7 1027,0 81 -
00:50 14,6 11,4 5,0 North 8,7 1027,0 81 -
00:55 14,5 11,4 5,3 North 9,0 1027,0 82 -
01:00 14,5 11,3 5,5 NNE 9,3 1027,0 81 -
01:05 14,4 11,2 5,1 North 9,7 1027,0 81 -
01:10 14,4 11,4 5,6 North 9,7 1027,0 82 -
01:15 14,4 11,4 5,8 North 9,7 1027,0 82 -
01:20 14,3 11,3 5,1 North 8,2 1027,0 82 -
01:25 14,2 11,2 5,0 North 9,0 1027,0 82 -
01:30 14,1 11,3 5,0 North 9,0 1027,0 83 -
01:35 14,0 11,0 4,5 NNE 8,2 1027,0 82 -
01:40 13,9 11,1 4,2 NNE 8,2 1027,0 83 -
01:45 13,8 10,9 4,7 North 10,1 1027,0 83 -
01:50 13,7 11,1 5,1 North 10,1 1027,0 84 -
01:55 13,7 11,1 5,5 North 10,5 1027,0 84 -
02:00 13,6 10,9 5,5 North 10,5 1027,0 84 -
02:05 13,6 11,1 4,7 North 8,7 1027,0 85 -
02:10 13,5 11,0 4,3 North 7,2 1027,0 85 -
02:15 13,5 11,0 4,7 North 7,2 1027,0 85 -
02:20 13,4 10,9 4,3 North 7,9 1027,0 85 -
02:25 13,4 11,1 4,2 North 7,9 1027,0 86 -
02:30 13,3 11,0 4,5 North 7,9 1027,0 86 -
02:35 13,3 11,0 4,5 NNE 7,9 1027,0 86 -
02:40 13,2 11,1 4,5 NNE 9,3 1027,0 87 -
02:45 13,1 11,0 4,5 North 9,3 1027,0 87 -
02:50 13,1 10,8 4,2 North 8,7 1027,0 86 -
02:55 13,0 10,9 4,2 North 8,7 1027,0 87 -
03:00 13,0 10,9 4,3 NNE 7,9 1027,0 87 -
03:05 12,9 10,9 4,5 NNE 8,2 1027,0 88 -
03:10 12,9 10,9 4,5 NNE 9,3 1027,0 88 -
03:15 12,9 11,1 4,8 North 9,3 1027,0 89 -
03:20 12,9 11,1 4,8 North 8,2 1027,0 89 -
03:25 12,9 11,1 4,8 North 9,0 1027,0 89 -
03:30 12,9 11,1 4,5 NNE 9,0 1027,0 89 -
03:35 12,8 11,1 4,3 NNE 8,2 1026,0 89 -
03:40 12,8 11,2 4,5 NNE 8,2 1026,0 90 -
03:45 12,8 11,1 4,3 NNE 9,0 1026,0 89 -
03:50 12,7 10,9 4,2 NNE 9,0 1026,0 89 -
03:55 12,6 10,8 4,7 NNE 7,2 1026,0 89 -
04:00 12,6 10,8 4,3 NNE 7,2 1026,0 89 -
04:05 12,5 10,7 4,2 North 8,7 1026,0 89 -
04:10 12,5 10,9 4,3 NNE 8,7 1026,0 90 -
04:15 12,5 10,9 4,7 NNE 8,7 1026,0 90 -
04:20 12,5 11,1 5,0 NNE 8,7 1026,0 91 -
04:25 12,5 11,1 5,0 NE 9,0 1026,0 91 -
04:30 12,7 11,4 5,6 NE 10,8 1026,0 92 -
04:35 12,7 11,4 6,0 NE 10,8 1027,0 92 -
04:40 12,7 11,3 6,0 NE 10,5 1027,0 91 -
04:45 12,9 11,6 6,8 NE 12,2 1027,0 92 -
04:50 12,8 11,6 6,9 NE 12,2 1026,0 92 -
04:55 12,9 11,6 6,8 NE 15,8 1026,0 92 -
05:00 13,0 11,7 6,8 NE 15,8 1026,0 92 -
05:05 13,0 11,7 7,2 NE 13,4 1026,0 92 -
05:10 13,0 11,6 7,1 NE 13,4 1026,0 91 -
05:15 13,0 11,4 5,6 NNE 10,8 1026,0 90 -
05:20 12,9 11,4 5,3 NNE 10,8 1026,0 91 -
05:25 12,8 11,2 5,1 NNE 10,5 1026,0 90 -
05:30 12,7 11,1 4,8 NNE 8,2 1026,0 90 -
05:35 12,6 11,0 4,5 NNE 8,2 1026,0 90 -
05:40 12,5 10,9 4,3 North 8,7 1026,0 90 -
05:45 12,5 11,1 4,3 North 8,7 1026,0 91 -
05:50 12,4 10,9 4,2 NNE 7,9 1026,0 91 -
05:55 12,4 10,9 4,7 NNE 8,2 1026,0 91 -
06:00 12,3 10,9 4,7 NNE 8,2 1026,0 91 -
06:05 12,2 10,8 4,2 NNE 7,2 1026,0 91 -
06:10 12,2 10,8 4,2 NNE 6,4 1026,0 91 -
06:15 12,2 10,8 4,3 NNE 8,7 1026,0 91 -
06:20 12,2 10,8 4,5 NNE 9,3 1026,0 91 -
06:25 12,1 10,7 3,9 NNE 9,3 1026,0 91 -
06:30 12,1 10,7 3,1 NE 7,9 1026,0 91 -
06:35 12,1 10,8 3,1 NNE 7,9 1026,0 92 -
06:40 12,0 10,6 2,9 NNE 7,9 1026,0 91 -
06:45 11,9 10,7 2,9 North 4,7 1026,0 92 -
06:50 11,9 10,7 2,7 North 4,7 1026,0 92 -
06:55 11,8 10,6 2,6 North 4,7 1026,0 92 -
07:00 11,7 10,4 2,9 North 5,0 1026,0 92 -
07:05 11,7 10,4 3,1 North 5,5 1026,0 92 -
07:10 11,7 10,4 2,9 NNE 5,5 1026,0 92 -
07:15 11,7 10,4 2,6 NNE 5,5 1026,0 92 -
07:20 11,6 10,3 2,7 NNE 5,5 1026,0 92 -
07:25 11,6 10,5 1,8 NNE 4,0 1026,0 93 -
07:30 11,5 10,2 1,4 NNE 4,0 1026,0 92 -
07:35 11,5 10,4 2,3 NE 5,0 1026,0 93 -
07:40 11,5 10,4 1,6 NE 5,0 1026,0 93 -
07:45 11,4 10,3 0,2 ENE 2,1 1026,0 93 -
07:50 11,4 10,3   Kalm 4,0 1027,0 93 -
07:55 11,4 10,3 1,3 NE 6,1 1027,0 93 -
08:00 11,5 10,4 2,3 NNE 6,1 1027,0 93 -
08:05 11,7 10,6 2,1 NNE 5,5 1027,0 93 -
08:10 11,8 10,9 1,8 NNE 5,5 1027,0 94 -
08:15 11,9 10,9 2,1 NNE 5,8 1027,0 94 -
08:20 12,1 11,0 2,6 NNE 5,8 1027,0 93 -
08:25 12,3 11,4 2,4 North 5,5 1027,0 94 -
08:30 12,4 11,4 2,4 North 5,5 1027,0 94 -
08:35 12,6 11,7 3,1 North 5,8 1027,0 94 -
08:40 12,8 11,8 3,5 NNE 6,1 1027,0 94 -
08:45 12,9 11,9 3,4 NNE 6,1 1027,0 94 -
08:50 13,1 12,0 2,9 NNE 6,1 1027,0 93 -
08:55 13,2 12,1 3,5 NNE 6,9 1027,0 93 -
09:00 13,4 12,3 4,0 NNE 7,9 1027,0 93 -
09:05 13,7 12,6 4,0 NNE 7,9 1027,0 93 -
09:10 13,9 12,6 4,0 NE 7,2 1027,0 92 -
09:15 14,4 12,9 4,7 NE 10,5 1027,0 91 -
09:20 15,0 13,6 5,8 NE 10,5 1027,0 91 -
09:25 15,4 13,6 6,3 NE 11,9 1027,0 89 -
09:30 15,6 13,3 6,8 NE 11,9 1027,0 86 -
09:35 15,7 13,2 6,8 NE 11,9 1027,0 85 -
09:40 15,7 13,2 6,3 NE 11,1 1027,0 85 -
09:45 15,8 12,9 6,6 NNE 11,1 1027,0 83 -
09:50 16,0 12,9 6,8 NNE 10,8 1027,0 82 -
09:55 16,2 12,9 6,0 NE 10,5 1027,0 81 -
10:00 16,6 13,5 5,6 NE 10,5 1027,0 82 -
10:05 16,8 13,1 6,4 NNE 11,1 1027,0 79 -
10:10 17,0 13,3 6,8 NE 11,1 1027,0 79 -
10:15 17,1 13,1 6,8 NE 11,1 1027,0 77 -
10:20 17,1 12,8 6,6 NE 11,1 1026,0 76 -
10:25 17,1 12,6 7,2 NNE 14,0 1026,0 75 -
10:30 17,2 12,5 7,9 NE 14,0 1026,0 74 -
10:35 17,4 13,1 7,2 NE 12,2 1027,0 76 -
10:40 17,8 13,3 7,4 NE 13,0 1027,0 75 -
10:45 18,2 12,8 8,2 NE 13,0 1027,0 71 -
10:50 18,6 13,0 8,7 NE 12,6 1026,0 70 -
10:55 18,8 13,2 8,8 NE 14,0 1026,0 70 -
11:00 19,1 12,6 8,2 NE 14,0 1026,0 66 -
11:05 19,6 13,3 8,2 NE 13,4 1026,0 67 -
11:10 20,0 13,7 8,0 NE 13,4 1026,0 67 -
11:15 20,1 12,6 7,2 NE 11,1 1026,0 62 -
11:20 20,5 12,9 7,6 NE 11,1 1026,0 62 -
11:25 20,6 13,3 7,6 NE 11,1 1026,0 63 -
11:30 20,9 12,8 6,6 NE 10,8 1026,0 60 -
11:35 21,1 14,0 6,3 NE 10,5 1026,0 64 -
11:40 21,4 13,8 6,4 NE 11,9 1026,0 62 -
11:45 21,8 14,2 6,1 NE 11,9 1026,0 62 -
11:50 21,8 13,9 6,0 NE 9,7 1026,0 61 -
11:55 22,0 13,3 6,6 NE 12,2 1026,0 58 -
12:00 22,2 13,6 6,9 NE 12,2 1026,0 58 -
12:05 22,1 12,9 6,8 NE 12,2 1026,0 56 -
12:10 22,1 12,6 6,8 NE 12,2 1026,0 55 -
12:15 22,5 14,1 6,1 NE 14,0 1026,0 59 -
12:20 22,7 14,0 5,8 NNE 14,0 1026,0 58 -
12:25 22,9 13,7 5,8 NE 12,2 1026,0 56 -
12:30 23,0 13,7 5,1 NE 8,7 1026,0 56 -
12:35 23,1 13,6 5,6 NE 10,5 1026,0 55 -
12:40 23,2 13,4 5,8 NE 10,8 1026,0 54 -
12:45 23,2 12,5 5,0 NE 10,8 1026,0 51 -
12:50 23,4 13,6 5,1 NNE 10,1 1026,0 54 -
12:55 23,4 12,7 5,5 NE 9,3 1026,0 51 -
13:00 23,7 12,9 5,1 NE 9,7 1026,0 51 -
13:05 23,8 12,4 5,1 ENE 9,7 1025,0 49 -
13:10 23,8 12,7 5,5 ENE 9,7 1025,0 50 -
13:15 24,1 12,4 4,5 NNE 9,0 1025,0 48 -
13:20 24,2 12,2 4,8 NE 11,9 1026,0 47 -
13:25 24,2 11,5 5,1 NE 11,9 1026,0 45 -
13:30 24,4 11,7 4,8 NE 8,7 1026,0 45 -
13:35 24,4 11,7 6,0 NE 9,3 1026,0 45 -
13:40 24,5 11,4 6,1 NE 10,5 1026,0 44 -
13:45 24,7 11,9 4,3 NE 10,5 1026,0 45 -
13:50 24,9 12,2 4,5 NE 10,8 1025,0 45 -
13:55 25,1 12,0 5,5 ENE 10,8 1025,0 44 -
14:00 25,1 11,6 5,8 NE 12,2 1025,0 43 -
14:05 25,3 11,8 6,6 NNE 12,2 1025,0 43 -
14:10 25,4 11,6 5,8 NNE 12,2 1025,0 42 -
14:15 25,4 11,2 5,1 NNW 12,2 1025,0 41 -
14:20 25,4 11,6 4,7 NNW 9,7 1025,0 42 -
14:25 25,5 11,3 5,8 NNE 12,6 1025,0 41 -
14:30 25,8 11,6 6,6 NNE 12,6 1025,0 41 -
14:35 25,7 11,1 6,1 NE 9,7 1024,0 40 -
14:40 25,8 11,9 5,0 NE 9,7 1024,0 42 -
14:45 26,0 11,7 3,9 NNE 9,3 1024,0 41 -
14:50 26,1 11,8 5,5 NNE 11,1 1025,0 41 -
14:55 26,1 11,4 5,0 North 11,1 1025,0 40 -
15:00 26,1 11,8 3,4 NNW 6,4 1025,0 41 -
15:05 26,2 11,9 4,3 North 9,7 1025,0 41 -
15:10 26,1 11,4 5,8 North 12,2 1025,0 40 -
15:15 26,4 11,3 4,8 NNE 12,2 1025,0 39 -
15:20 26,4 11,7 3,9 North 7,2 1025,0 40 -
15:25 26,7 12,0 3,9 NW 7,2 1025,0 40 -
15:30 26,8 12,1 3,7 WNW 7,9 1025,0 40 -
15:35 26,7 11,6 3,5 West 7,9 1025,0 39 -
15:40 26,7 12,0 4,3 WSW 8,7 1025,0 40 -
15:45 27,1 12,7 5,0 WSW 11,1 1025,0 41 -
15:50 27,4 12,6 4,8 WSW 11,1 1025,0 40 -
15:55 27,5 12,7 5,3 SW 10,8 1025,0 40 -
16:00 27,4 12,6 6,1 WSW 10,8 1025,0 40 -

Download your copy of this data-set  from WeatherUnderground

Our weather-data as stored at Weather Underground. Original script b Jim McMurry. Rewritten for template use Leuven-Template